CAPE
0 0 0 0 0 0 0 0 0 0 0 0 1 28 96 67 201 178 41 153 182 190 461 708 775 1504 1543 2482 2521 2607 2796 2684
0 0 0 0 0 0 0 0 0 0 0 0 0 25 61 59 63 53 6 49 186 233 462 717 851 1296 1638 2216 2696 2893 2567 2966
0 0 0 0 0 0 0 0 0 0 0 0 0 36 148 90 41 53 25 73 255 250 423 823 986 1254 1604 2169 2750 2977 3073 2949
0 0 0 0 0 0 0 0 0 0 0 0 0 132 181 151 86 48 5 46 222 364 484 978 1144 1124 1575 2623 2755 3040 3196 3122
0 0 0 0 0 0 0 0 0 0 0 0 0 0 12 30 36 18 14 436 534 480 843 1115 1190 1161 1578 2194 3041 3236 3359 3255
0 0 0 0 0 0 0 0 0 0 0 0 0 20 21 39 22 9 28 244 638 692 1001 1108 1358 1320 1312 1917 2793 3248 3499 3376
0 0 0 0 0 0 0 0 0 0 0 0 0 101 66 98 95 54 140 463 713 798 730 1197 1353 1421 1450 1650 1991 2940 3228 3330
0 0 0 0 0 0 0 0 0 0 0 0 0 0 303 173 54 7 424 887 672 995 768 826 1144 1366 1498 1632 1934 2288 2962 3132
0 0 0 0 0 0 0 0 0 0 0 0 0 0 41 82 164 24 20 601 715 854 1507 848 957 1153 1368 1587 1705 2100 2571 2952
0 0 0 0 0 0 0 0 0 0 0 0 0 0 7 0 73 14 3 27 351 700 1085 1924 1121 1110 1296 1446 1743 1941 2109 2709
0 0 0 0 0 0 3 0 36 286 158 2 0 0 0 0 0 0 0 15 0 361 1030 1480 1818 1333 1181 1301 1565 1736 1809 2075
0 0 0 0 52 239 148 206 730 560 487 372 264 82 24 433 984 73 6 0 0 47 39 1577 1927 2005 1683 1378 1322 1390 1500 1895
27 0 0 78 257 208 162 468 489 398 439 545 460 479 466 476 1084 1221 936 526 69 247 626 1659 2020 2156 2021 1755 1522 1637 1402 2782
86 91 53 436 353 413 658 961 1193 1184 1408 654 497 392 518 841 1022 1226 991 882 3042 1358 1945 2357 2445 2479 2347 1895 1867 3109 3429 4164
13 127 366 441 614 483 543 951 1004 1136 1559 1289 1379 1654 1824 1422 1362 1585 2108 3051 3236 3632 3892 3769 3031 3015 3591 3909 3786 3816 4293 4288
127 0 186 146 181 859 670 331 554 1003 1144 1200 1269 1463 1607 1873 2298 2404 2607 3031 3069 3159 3418 3652 3671 3754 3866 3866 3873 4021 4008 4125
142 561 680 609 501 518 398 236 514 836 1105 1285 1402 1288 1354 1494 1706 2111 2543 2916 3028 3172 3612 3576 3493 3542 3550 3645 3733 3830 3798 3485
151 308 371 380 162 172 205 201 389 654 885 1072 1059 998 913 937 878 1133 1088 1551 3086 3361 3368 3475 3654 3602 3438 3338 3334 3265 2678 2807
85 260 330 25 32 68 76 25 0 46 250 354 314 362 373 328 270 259 298 222 1101 2166 2695 2974 3248 3119 2823 2778 2820 2809 2685 2400
CIN
0 0 0 0 0 0 0 0 0 0 0 0 -18 -17 -30 -11 -23 -31 -65 -13 -27 -170 -248 -325 -321 -325 -329 -219 -157 -95 -51 -39
0 0 0 0 0 0 0 0 0 0 0 0 0 -65 -51 -30 -14 -49 -58 -39 -29 -52 -234 -343 -351 -344 -311 -283 -197 -104 -74 -41
0 0 0 0 0 0 0 0 0 0 0 0 0 -66 -38 -25 -29 -78 -115 -121 -113 -41 -209 -324 -355 -337 -323 -307 -201 -121 -76 -69
0 0 0 0 0 0 0 0 0 0 0 0 0 -87 -84 -33 -16 -19 -31 -28 -42 -36 -165 -307 -333 -313 -326 -274 -248 -175 -122 -91
0 0 0 0 0 0 0 0 0 0 0 0 0 0 -10 -94 -37 -34 -69 -68 -70 -39 -153 -247 -286 -326 -324 -283 -229 -190 -137 -118
0 0 0 0 0 0 0 0 0 0 0 0 0 -54 -66 -14 -33 -109 -57 -116 -34 -51 -143 -177 -252 -309 -318 -297 -242 -202 -150 -128
0 0 0 0 0 0 0 0 0 0 0 0 0 -111 -83 -52 -91 -133 -112 -172 -44 -53 -105 -164 -196 -249 -298 -289 -269 -238 -199 -162
0 0 0 0 0 0 0 0 0 0 0 0 0 0 -93 -84 -9 -22 -65 -126 -110 -71 -53 -117 -164 -187 -265 -306 -280 -239 -251 -234
0 0 0 0 0 0 0 0 0 0 0 0 0 0 -116 -122 -84 -5 -89 -54 -68 -92 -227 -52 -213 -225 -273 -289 -289 -258 -250 -261
0 0 0 0 0 0 0 0 0 0 0 0 0 0 -82 0 -10 -28 -65 -82 -158 -154 -142 -164 -202 -209 -269 -289 -302 -298 -282 -273
0 0 0 0 0 0 -2 0 -47 -98 -111 -109 0 0 0 0 0 0 0 -139 0 -108 -125 -197 -69 -210 -206 -228 -267 -278 -285 -311
0 0 0 0 -47 -29 -57 -42 -135 -146 -141 -136 -172 -218 -19 -254 -129 -272 -18 0 0 -230 -181 -211 -117 -52 -38 -28 -287 -294 -258 -390
-22 0 0 -80 -154 -45 -15 -98 -157 -161 -145 -141 -135 -147 -198 -218 -147 -147 -165 -112 -28 -141 -127 -216 -202 -70 -41 -40 -44 -356 -312 -275
-26 -22 -5 -154 -76 -57 -168 -86 -130 -175 -167 -135 -173 -203 -160 -110 -104 -150 -130 -108 -115 -343 -269 -356 -203 -149 -235 -49 -268 -284 -182 -134
-7 -15 -99 -101 -48 -188 -196 -155 -190 -207 -196 -161 -199 -174 -190 -114 -89 -94 -126 -88 -86 -145 -205 -306 -317 -288 -292 -285 -249 -152 -95 -73
-7 -1 -22 -62 -56 -158 -111 -349 -125 -173 -147 -196 -203 -148 -127 -137 -117 -99 -66 -80 -153 -215 -166 -144 -223 -249 -246 -182 -170 -126 -88 -38
-63 -54 -21 -38 0 -6 -101 -175 -68 -97 -105 -109 -73 -70 -74 -61 -83 -82 -81 -125 -166 -190 -202 -181 -179 -182 -138 -115 -129 -74 -51 -45
-26 -43 -30 0 -6 -32 -24 -53 -80 -59 -60 -43 -33 -24 -54 -30 -85 -94 -87 -9 -78 -83 -107 -101 -72 -72 -71 -54 -36 -46 -59 -44
-44 -3 -2 -10 -1 -7 -8 -43 -1 -100 -73 -50 -87 -57 -50 -34 -147 -118 -150 -18 -9 -41 -44 -60 -35 -42 -62 -48 -50 -70 -78 -96
Wind_Speed
nan nan nan nan nan nan nan nan nan nan nan nan nan nan nan nan 33 45 nan 34 10 22 30 32 29 30 29 27 27 26 26 26
nan nan nan nan nan nan nan nan nan nan nan nan nan nan nan nan nan nan nan nan 18 16 28 40 34 28 26 23 25 23 23 22
nan nan nan nan nan nan nan nan nan nan nan nan nan nan 30 nan nan nan nan nan 36 33 32 40 33 28 30 24 23 24 23 22
nan nan nan nan nan nan nan nan nan nan nan nan nan 26 19 32 nan nan nan nan 37 32 36 35 32 26 27 22 23 26 26 22
nan nan nan nan nan nan nan nan nan nan nan nan nan nan nan nan nan nan nan 34 35 31 38 35 29 23 24 23 23 24 26 21
nan nan nan nan nan nan nan nan nan nan nan nan nan nan nan nan nan nan nan 29 37 40 37 35 34 24 23 24 25 25 23 18
nan nan nan nan nan nan nan nan nan nan nan nan nan 34 nan nan nan nan 23 29 32 35 37 28 28 26 24 24 27 26 23 17
nan nan nan nan nan nan nan nan nan nan nan nan nan nan 32 24 nan nan 37 32 32 39 42 37 38 40 39 29 27 26 25 19
nan nan nan nan nan nan nan nan nan nan nan nan nan nan nan nan 30 nan nan 27 38 37 44 43 45 43 45 38 32 27 27 20
nan nan nan nan nan nan nan nan nan nan nan nan nan nan nan nan nan nan nan nan 35 35 41 47 47 50 39 43 34 30 29 25
nan nan nan nan nan nan nan nan nan 50 49 nan nan nan nan nan nan nan nan nan nan 36 43 40 43 47 46 46 38 36 31 26
nan nan nan nan nan 56 56 51 53 58 57 51 49 nan nan 63 68 nan nan nan nan nan nan 38 31 43 47 41 37 36 28 24
nan nan nan nan 59 46 49 49 60 64 61 59 53 42 39 47 68 70 72 65 nan 55 51 44 39 46 46 43 42 29 30 38
nan nan nan 63 57 55 54 64 66 63 56 53 50 47 44 39 43 53 72 82 79 63 51 46 50 55 45 30 39 42 40 47
nan 55 50 61 49 53 67 70 67 63 64 61 64 61 56 45 44 47 50 54 62 91 81 66 61 62 64 52 49 48 47 48
69 nan 50 63 51 68 67 67 61 56 65 55 55 57 56 54 53 50 55 57 58 58 66 76 76 67 62 60 54 55 52 50
54 69 55 43 56 66 68 74 51 57 54 54 61 59 61 57 55 52 48 59 69 66 66 64 58 72 72 65 64 58 53 51
57 48 35 52 72 39 54 43 61 65 58 53 56 55 54 55 54 58 66 53 70 72 72 66 64 62 71 75 75 61 58 51
nan 61 78 nan nan nan nan nan nan nan 52 55 50 47 51 50 48 58 73 40 40 61 57 64 51 55 58 54 53 57 55 51
Wind_Direction
nan nan nan nan nan nan nan nan nan nan nan nan nan nan nan nan 306 321 nan 291 2 338 334 335 318 318 319 316 315 314 309 310
nan nan nan nan nan nan nan nan nan nan nan nan nan nan nan nan nan nan nan nan 290 336 326 320 325 309 311 319 332 331 324 313
nan nan nan nan nan nan nan nan nan nan nan nan nan nan 295 nan nan nan nan nan 312 329 312 327 315 302 304 316 326 331 331 336
nan nan nan nan nan nan nan nan nan nan nan nan nan 224 287 307 nan nan nan nan 327 317 296 308 310 309 306 313 324 330 333 344
nan nan nan nan nan nan nan nan nan nan nan nan nan nan nan nan nan nan nan 302 292 279 287 296 306 313 300 311 320 324 336 346
nan nan nan nan nan nan nan nan nan nan nan nan nan nan nan nan nan nan nan 258 262 271 278 288 294 295 297 303 310 322 339 345
nan nan nan nan nan nan nan nan nan nan nan nan nan 216 nan nan nan nan 219 246 244 267 276 287 297 302 298 301 307 312 326 342
nan nan nan nan nan nan nan nan nan nan nan nan nan nan 217 246 nan nan 232 236 255 261 272 278 286 293 294 303 313 306 312 340
nan nan nan nan nan nan nan nan nan nan nan nan nan nan nan nan 243 nan nan 234 245 244 262 279 285 293 294 303 308 312 312 313
nan nan nan nan nan nan nan nan nan nan nan nan nan nan nan nan nan nan nan nan 220 256 257 266 279 287 294 291 299 300 297 298
nan nan nan nan nan nan nan nan nan 233 231 nan nan nan nan nan nan nan nan nan nan 219 238 251 271 278 280 285 288 293 285 287
nan nan nan nan nan 213 211 218 212 224 227 229 239 nan nan 217 223 nan nan nan nan nan nan 230 257 267 278 279 282 291 284 281
nan nan nan nan 211 213 216 218 220 229 232 236 241 253 247 224 227 229 233 239 nan 254 252 256 250 262 266 278 286 288 267 255
nan nan nan 211 209 214 216 219 225 229 223 228 233 235 243 243 246 235 234 235 237 242 247 251 256 266 273 274 259 253 259 254
nan 194 209 213 217 206 218 224 224 233 224 239 239 233 229 237 242 246 244 248 248 243 239 236 250 259 258 259 256 254 257 258
194 nan 215 207 207 228 227 229 232 234 239 230 241 235 234 237 241 247 241 244 250 251 244 236 238 244 245 254 249 253 256 258
182 190 211 225 208 221 233 234 238 220 227 231 238 241 245 242 241 241 239 252 250 252 246 239 237 239 245 245 249 248 248 249
181 185 190 201 219 228 233 236 230 236 238 236 243 244 247 253 255 247 242 221 243 248 243 244 240 245 247 245 248 249 246 247
nan 202 209 nan nan nan nan nan nan nan 239 251 253 254 254 259 255 256 249 205 208 233 237 238 234 242 242 246 247 245 245 250